Вернуться в каталог

STARLINK-32599

АктивенСвязьVLEO
NORAD 62048·PAYLOAD·🇺🇸 United States

Запущен Nov 21, 2024 с Cape Canaveral Space Force Station

Loading…

Ближайшие Пролёты (ближайшие 24 часа)

TLE

СвежийSource: CelesTrak SupGP

Эпоха: Sep 15, 2026, 02:47 UTC

1 62048C 24216S   26258.11645833 -.00003875  00000+0 -14034-3 0  2586
2 62048  42.9999 273.8371 0001398 264.1015  24.0979 15.27582860    11

Отслеживайте STARLINK-32599 в реальном времени с AllMySat

Download on the App Store